Regional Weather Roundup
Issued by NWS Green Bay, WI

Home | Current Version | Previous Version | Text Only | Print | Product List | Glossary On
Versions: 1 2 3 4 5 6 7 8 9 10 11 12 13 14 15 16 17 18 19 20 21 22 23 24 25 26 27 28 29 30 31 32 33 34 35 36 37 38 39 40 41 42 43 44 45 46 47 48 49 50
000
ASUS43 KGRB 250111
RWRGRB

NORTH-CENTRAL AND NORTHEAST WISCONSIN REGIONAL WEATHER ROUNDUP
NATIONAL WEATHER SERVICE GREEN BAY WI
800 PM CDT SUN MAY 24 2015

WIZ005-009-010>012-018-019-250200-
NORTH CENTRAL WISCONSIN

CITY           SKY/WX    TMP DP  RH WIND       PRES   REMARKS
IRONWOOD       CLOUDY    64  52  63 SE9       29.95F
MANITOWISH WTR RAIN      57  57 100 CALM      29.99F
ARBOR VITAE    LGT RAIN  58  56  94 SE5       30.00F
EAGLE RIVER    RAIN      56  55  96 SE6       30.00F
LAND O LAKES   LGT RAIN  58  56  94 CALM      30.01F
RHINELANDER    LGT RAIN  56  54  93 SE9       30.01F
PHILLIPS       LGT RAIN  56  55  97 E6        29.98S
ANTIGO         RAIN      55  55  99 E10       30.00F
TOMAHAWK       LGT RAIN  56  55  95 CALM      30.00S
MERRILL        RAIN      57  57 100 E5        29.98F
$$

WIZ013-073-250200-
NORTHEAST WISCONSIN

CITY           SKY/WX    TMP DP  RH WIND       PRES   REMARKS
IRON MOUNTAIN  LGT RAIN  59  56  89 SE6       30.01F FOG
MARINETTE      CLOUDY    57  52  82 S5        30.03F
OCONTO         CLOUDY    55  55 100 SE5       30.03S
$$

WIZ017-030-035>037-045-250200-
CENTRAL WISCONSIN

CITY           SKY/WX    TMP DP  RH WIND       PRES   REMARKS
MEDFORD        RAIN      56  55  97 E5        29.95F
WAUSAU         RAIN      57  55  93 E8G16     29.95F FOG
MOSINEE        DRIZZLE   55  55 100 E8        29.97F
MARSHFIELD     RAIN      57  54  89 SE14G21   29.94F FOG
WISC RAPIDS    LGT RAIN  57  53  86 SE8       29.96F
STEVENS POINT  LGT RAIN  54  53  97 E8        29.97F
WAUPACA        DRIZZLE   57  57  97 E8        29.98F
SHAWANO        LGT RAIN  58  55  92 CALM      30.01F
CLINTONVILLE   RAIN      55  54  94 E5        30.00F
$$

WIZ038-039-048-051-250200-
FOX VALLEY

CITY           SKY/WX    TMP DP  RH WIND       PRES   REMARKS
NWS GREEN BAY  RAIN      56  54  93 NE7       30.01F FOG
APPLETON       LGT RAIN  55  55 100 NE8       30.00S FOG
OSHKOSH        RAIN      57  53  86 SE10      29.96F FOG
FOND DU LAC    LGT RAIN  57  53  86 SE7       29.96S
$$

WIZ022-050-052-250200-
EAST CENTRAL WISCONSIN

CITY           SKY/WX    TMP DP  RH WIND       PRES   REMARKS
STURGEON BAY   CLOUDY    55  50  82 SE7       30.05F
MANITOWOC      HVY RAIN  55  55 100 E9        30.00F FOG
SHEBOYGAN      LGT RAIN  55  53  93 E9        29.99F FOG
$$

LMZ563-521-522-541>543-250200-
LAKESHORE

STATION/POSITION TIME  TEMP    WIND        PRES    VSBY  WAVE
                       AIR SEA DIR/SP/G                  HT/PER
                 (UTC) (F)     (DEG/KT/KT) (MB)    (MI)  (FT/S)
SHEBOYGAN LKSHOR 0100   49      30/  7/  8 1015.6F
KEWAUNEE LKSHORE 0000   49     130/  2/  6 1016.4F
NORTHPORT PIER   0000   56     160/  4/  9 1017.9S
N MID LAKE BUOY  0050   44 36  200/  6/  6 1018.2F         1/ 4
SISTER BAY LKSHO 0017   54     150/  9/ 12   N/A
STURGEON BAY CG  2345   48     180/  6     1018.5    3/8   0
CHAMBERS ISLAND  0000   56     140/  2/  5 1017.6F
MENOMINEE LKSHOR 0000   57     150/  8/ 10 1017.8F
$$


USA.gov is the U.S. government's official web portal to all federal, state and local government web resources and services.